Air Quality Table

TIMESTAMP NO2 SO2 O3 PM10 PM2.5 TEMP HUM AIRPRES WS WD NO
2022-11-26 09:00 12 µg/m3 0.05 µg/m3 66.2 µg/m3 23.74 µg/m3 5.53 µg/m3 18.93 °C 96.51 % 1,007.39 mbar 4.9 m/s 180.87 Deg 0.24 µg/m3
2022-11-26 08:00 10.16 µg/m3 0.01 µg/m3 69.68 µg/m3 23.8 µg/m3 7.41 µg/m3 19.06 °C 90.18 % 1,007.59 mbar 5.59 m/s 173 Deg 0.21 µg/m3
2022-11-26 07:00 19.04 µg/m3 0.06 µg/m3 62.31 µg/m3 12.54 µg/m3 11.08 µg/m3 18.83 °C 87.62 % 1,008.74 mbar 5.08 m/s 182.28 Deg 0.15 µg/m3
2022-11-26 06:00 16.82 µg/m3 0.07 µg/m3 64.01 µg/m3 13.08 µg/m3 6.5 µg/m3 18.49 °C 87.8 % 1,008.79 mbar 4.19 m/s 179.9 Deg 0.1 µg/m3
2022-11-26 05:00 17.65 µg/m3 0.04 µg/m3 60.84 µg/m3 17.62 µg/m3 6.48 µg/m3 18.07 °C 86.79 % 1,009.75 mbar 2.23 m/s 193.02 Deg 0.08 µg/m3
2022-11-26 04:00 12.94 µg/m3 0.16 µg/m3 64.2 µg/m3 19.45 µg/m3 7.2 µg/m3 17.74 °C 85.61 % 1,010.69 mbar 2.35 m/s 194.47 Deg 0.05 µg/m3
2022-11-26 03:00 4.15 µg/m3 0.09 µg/m3 66.79 µg/m3 16.4 µg/m3 8.32 µg/m3 17.28 °C 85.02 % 1,011.87 mbar 2.41 m/s 201.98 Deg -0.02 µg/m3
2022-11-26 02:00 15.84 µg/m3 0.09 µg/m3 58.51 µg/m3 20.45 µg/m3 9.57 µg/m3 17.13 °C 83.42 % 1,012.14 mbar 2.07 m/s 205.78 Deg 0.11 µg/m3
2022-11-26 01:00 20.01 µg/m3 0.16 µg/m3 53.99 µg/m3 31.78 µg/m3 10.19 µg/m3 16.84 °C 81.47 % 1,012.44 mbar 1.43 m/s 201.32 Deg 0.27 µg/m3
2022-11-26 00:00 49.51 µg/m3 0.22 µg/m3 28.13 µg/m3 44.84 µg/m3 13.22 µg/m3 16.97 °C 81.5 % 1,013.09 mbar 1.41 m/s 200.45 Deg 3.76 µg/m3
2022-11-25 23:00 57.68 µg/m3 0.38 µg/m3 22.92 µg/m3 59.7 µg/m3 21.22 µg/m3 16.83 °C 79.96 % 1,013.58 mbar 0.56 m/s 183.61 Deg 14.28 µg/m3
2022-11-25 22:00 54.61 µg/m3 0.38 µg/m3 28.54 µg/m3 83.4 µg/m3 17.52 µg/m3 16.69 °C 78.66 % 1,014.03 mbar 0.54 m/s 137.08 Deg 10.84 µg/m3
2022-11-25 21:00 77.29 µg/m3 0.7 µg/m3 10.1 µg/m3 76.79 µg/m3 17.27 µg/m3 16.73 °C 79.53 % 1,014.24 mbar 0.77 m/s 255.55 Deg 33.08 µg/m3
2022-11-25 20:00 83.25 µg/m3 0.77 µg/m3 5.88 µg/m3 73.62 µg/m3 9.69 µg/m3 16.79 °C 78.88 % 1,013.93 mbar 0.85 m/s 275.73 Deg 45.46 µg/m3
2022-11-25 19:00 89.75 µg/m3 0.76 µg/m3 3.87 µg/m3 38.57 µg/m3 9.79 µg/m3 16.87 °C 78.35 % 1,013.84 mbar 0.62 m/s 289.36 Deg 39.62 µg/m3
2022-11-25 18:00 59.08 µg/m3 0.23 µg/m3 23.14 µg/m3 32.37 µg/m3 15.47 µg/m3 17.3 °C 75.45 % 1,013.82 mbar 1 m/s 333.37 Deg 7.66 µg/m3
2022-11-25 17:00 31.53 µg/m3 0.14 µg/m3 51.28 µg/m3 29.13 µg/m3 6.68 µg/m3 18.04 °C 71.58 % 1,013.57 mbar 1.27 m/s 15.87 Deg 3.01 µg/m3
2022-11-25 16:00 16.2 µg/m3 0.11 µg/m3 72.31 µg/m3 24.87 µg/m3 6.35 µg/m3 18.78 °C 67.38 % 1,013.58 mbar 1.86 m/s 16.22 Deg 2.45 µg/m3
2022-11-25 15:00 10.64 µg/m3 0.08 µg/m3 78.08 µg/m3 19.94 µg/m3 8.44 µg/m3 19.11 °C 65.42 % 1,013.31 mbar 2.08 m/s 8.37 Deg 1.88 µg/m3
2022-11-25 14:00 10.03 µg/m3 0.1 µg/m3 77.38 µg/m3 29.03 µg/m3 7 µg/m3 19.35 °C 63.75 % 1,013.85 mbar 2.46 m/s 99.53 Deg 1.91 µg/m3
2022-11-25 13:00 9.95 µg/m3 0.13 µg/m3 74.98 µg/m3 32.68 µg/m3 7 µg/m3 19.13 °C 63.26 % 1,014.25 mbar 2.66 m/s 14.5 Deg 1.97 µg/m3
2022-11-25 12:00 16.05 µg/m3 0.14 µg/m3 67.5 µg/m3 33.33 µg/m3 8.71 µg/m3 19.11 °C 63.12 % 1,014.53 mbar 2.6 m/s 91.98 Deg 4.02 µg/m3
2022-11-25 11:00 20.41 µg/m3 0.2 µg/m3 61.01 µg/m3 43.69 µg/m3 13.25 µg/m3 19.08 °C 66.89 % 1,014.84 mbar 1.83 m/s 335.9 Deg 5.49 µg/m3

It is to be noted that the data is provisional and subject to quality assurance procedures. For validated data kindly refer your request to contact.air@era.org.mt